Flag for Thailand Weather past 2 weeks in Udon Thani, Thailand

Now
86 °F

Clear.


Feels Like: 91 °F
Forecast: 73 / 97 °F
Wind: 3 mph from North

Location: Udon Thani Airport

Current Time: Mar 3, 2015 at 10:26:23 AM

Latest Report: Mar 3, 2015 at 10:00 AM


Visibility: 4 mi

Pressure: 29.89 "Hg

Humidity: 59%

Dew point: 70 °F

Location of Udon ThaniLocation

Historic Weather in Udon Thani — Graph

°F

Udon Thani temperature yesterday

Maximum temperature yesterday: 93 °F (at 3:00 PM)
Minimum temperature yesterday: 73 °F (at 6:00 AM)
Average temperature yesterday: 85 °F

Past Weeks' High & Low Weather Summary

 TemperatureHumidityPressure
High99 °F (Feb 28, 3:00 PM)100% (Feb 17, 6:00 AM)30.15 "Hg (Feb 17, 6:00 AM)
Low68 °F (Feb 17, 6:00 AM)25% (Feb 28, 4:00 PM)29.74 "Hg (Feb 25, 3:00 PM)
Average82 °F64%29.88 "Hg
* Reported Feb 16 9:00 AM — Mar 3 9:00 AM, Udon Thani, Weather by CustomWeather, © 2015

Note: Actual official high and low records may vary slightly from our data, if they occured in-between our weather recording intervals... More about our weather records

Advertising

Udon Thani weather history for previous 24 hours

 ConditionsComfort  
Time TempWeatherWind HumidityBarometerVisibility
9:00 AM
Tue, Mar 3
81 °FFog.3 mph70%29.89 "Hg3 mi
8:00 AM79 °FFog.1 mph74%29.86 "Hg2 mi
7:00 AM73 °FFog.No wind89%29.83 "Hg2 mi
6:00 AM73 °FClear.No wind89%29.80 "Hg4 mi
10:00 PM
Mon, Mar 2
81 °FClear.3 mph70%29.83 "Hg5 mi
9:00 PM82 °FClear.2 mph66%29.83 "Hg5 mi
8:00 PM84 °FClear.No wind62%29.80 "Hg6 mi
7:00 PM86 °FClear.3 mph55%29.77 "Hg6 mi
6:00 PM90 °FClear.5 mph49%29.77 "Hg6 mi
5:00 PM91 °FSunny.6 mph46%29.77 "Hg10 mi
4:00 PM93 °FPassing clouds.5 mph44%29.77 "HgN/A
3:00 PM93 °FPassing clouds.6 mph41%29.80 "HgN/A
2:00 PM91 °FPassing clouds.6 mph44%29.83 "HgN/A
1:00 PM90 °FPassing clouds.6 mph46%29.89 "HgN/A
12:00 PM88 °FPassing clouds.6 mph49%29.92 "HgN/A
11:00 AM86 °FPassing clouds.5 mph52%29.98 "HgN/A
10:00 AM82 °FSunny.3 mph55%29.98 "Hg10 mi
Weather by CustomWeather, © 2015

See weather overviewHow to use our weather pages